Hamilton, OH

1:29 AM EDT on June 26, 2017 (GMT -0400)
Butler County Regional

Weather History for KHAO - December, 2012

Change the Weather History Date:

Monday, December 3, 2012

  Actual Average (KLUK) Record (KLUK)
Temperature  
Mean Temperature 64 °F -  
Max Temperature 72 °F 46 °F 75 °F (1982)
Min Temperature 55 °F 30 °F 8 °F (1966)
Degree Days  
Heating Degree Days 2    
Growing Degree Days 14 (Base 50)    
Moisture  
Dew Point 56 °F    
Average Humidity 85    
Maximum Humidity 100    
Minimum Humidity 59    
Precipitation  
Precipitation 0.02 in - - ()
Sea Level Pressure  
Sea Level Pressure 30.13 in    
Wind  
Wind Speed 2 mph (South)    
Max Wind Speed 14 mph    
Max Gust Speed 17 mph    
Visibility 6 miles    
Events Rain    
Averages and records for this station are not official NWS values.
T = Trace of Precipitation, MM = Missing Value Source: NWS Daily Summary

Daily Weather History Graph

Daily Weather History Graph

Search for Another Location

Airport or City:

Trip Planner

Search our weather history database for the weather conditions in past years. The results will help you decide how hot, cold, wet, or windy it might be!

Date:

Astronomy

Dec. 03, 2012 Rise Set
Actual Time 7:41 AM EST 5:14 PM EST
Civil Twilight 7:11 AM EST 5:44 PM EST
Nautical Twilight 6:38 AM EST 6:17 PM EST
Astronomical Twilight 6:05 AM EST 6:50 PM EST
Moon 9:59 PM EST (12/3) 11:04 AM EST (12/3)
Length of Visible Light 10h 33m
Length of Day
9h 33m
Waning Gibbous, 78% of the Moon is Illuminated
Dec 3
Waning Gibbous
Dec 6
Last Quarter
Dec 13
New
Dec 20
First Quarter
Dec 28
Full

Hourly Weather History & Observations

Time (EST) Temp. Dew Point Humidity Pressure Visibility Wind Dir Wind Speed Gust Speed Precip Events Conditions
12:01 AM 59.0 °F 57.2 °F 94% 30.15 in 1.8 mi Calm Calm - N/A   Overcast
12:14 AM 59.0 °F 57.2 °F 94% 30.15 in 2.5 mi Calm Calm - 0.00 in Rain Light Rain
12:53 AM 59.0 °F 57.9 °F 96% 30.14 in 2.0 mi Calm Calm - 0.01 in Rain Light Rain
12:57 AM 59.0 °F 57.2 °F 94% 30.14 in 1.5 mi Calm Calm - 0.00 in Rain Light Rain
1:38 AM 57.2 °F 57.2 °F 100% 30.15 in 1.8 mi Calm Calm - 0.01 in   Overcast
1:53 AM 57.9 °F 57.9 °F 100% 30.15 in 1.5 mi Calm Calm - 0.01 in   Overcast
2:13 AM 57.2 °F 57.2 °F 100% 30.15 in 1.8 mi Calm Calm - N/A   Overcast
2:24 AM 57.2 °F 57.2 °F 100% 30.15 in 2.0 mi Calm Calm - N/A   Overcast
2:31 AM 57.2 °F 57.2 °F 100% 30.15 in 0.8 mi Calm Calm - N/A   Overcast
2:42 AM 57.2 °F 57.2 °F 100% 30.15 in 1.8 mi ESE 3.5 mph - N/A   Overcast
2:49 AM 57.2 °F 57.2 °F 100% 30.14 in 2.0 mi SE 3.5 mph - N/A   Overcast
2:53 AM 57.9 °F 57.0 °F 97% 30.14 in 2.0 mi ESE 3.5 mph - N/A   Overcast
3:53 AM 57.0 °F 55.9 °F 96% 30.14 in 3.0 mi Calm Calm - N/A   Overcast
4:05 AM 57.2 °F 55.4 °F 94% 30.14 in 2.0 mi Calm Calm - N/A   Overcast
4:25 AM 55.4 °F 55.4 °F 100% 30.13 in 3.0 mi Calm Calm - N/A   Overcast
4:35 AM 57.2 °F 55.4 °F 94% 30.14 in 2.5 mi Calm Calm - N/A   Overcast
4:46 AM 55.4 °F 55.4 °F 100% 30.14 in 3.0 mi East 3.5 mph - N/A   Overcast
4:53 AM 55.9 °F 55.9 °F 100% 30.14 in 3.0 mi ESE 3.5 mph - N/A   Overcast
5:10 AM 55.4 °F 55.4 °F 100% 30.14 in 2.0 mi ESE 3.5 mph - N/A   Overcast
5:27 AM 57.2 °F 55.4 °F 94% 30.14 in 4.0 mi Calm Calm - N/A   Overcast
5:53 AM 57.0 °F 55.9 °F 96% 30.14 in 4.0 mi SE 3.5 mph - N/A   Overcast
6:53 AM 57.9 °F 55.9 °F 93% 30.15 in 8.0 mi Calm Calm - N/A   Overcast
7:53 AM 60.1 °F 55.9 °F 86% 30.16 in 10.0 mi SSW 4.6 mph - N/A   Overcast
8:33 AM 60.8 °F 55.4 °F 82% 30.16 in 10.0 mi Calm Calm - N/A   Scattered Clouds
8:53 AM 61.0 °F 57.0 °F 87% 30.16 in 10.0 mi South 4.6 mph - N/A   Scattered Clouds
9:08 AM 60.8 °F 55.4 °F 82% 30.16 in 10.0 mi SSW 4.6 mph - N/A   Mostly Cloudy
9:53 AM 62.1 °F 57.0 °F 84% 30.16 in 10.0 mi SSW 5.8 mph - 0.00 in   Overcast
10:03 AM 62.6 °F 57.2 °F 82% 30.16 in 10.0 mi SSW 3.5 mph - N/A   Overcast
10:53 AM 63.0 °F 57.0 °F 81% 30.15 in 10.0 mi South 6.9 mph - 0.00 in   Overcast
11:53 AM 66.0 °F 57.9 °F 75% 30.13 in 10.0 mi SSW 4.6 mph - N/A   Mostly Cloudy
12:53 PM 70.0 °F 57.9 °F 65% 30.10 in 10.0 mi SW 9.2 mph 16.1 mph N/A   Clear
1:53 PM 71.1 °F 57.9 °F 63% 30.08 in 10.0 mi SW 9.2 mph 17.3 mph N/A   Clear
2:53 PM 72.0 °F 57.9 °F 61% 30.07 in 10.0 mi SW 13.8 mph 17.3 mph N/A   Partly Cloudy
3:53 PM 72.0 °F 57.0 °F 59% 30.06 in 10.0 mi SSW 10.4 mph 17.3 mph N/A   Clear
4:53 PM 70.0 °F 57.0 °F 63% 30.08 in 10.0 mi South 6.9 mph - N/A   Clear
5:53 PM 66.9 °F 55.9 °F 68% 30.09 in 10.0 mi Variable 4.6 mph - N/A   Partly Cloudy
6:53 PM 66.0 °F 55.0 °F 68% 30.09 in 10.0 mi South 3.5 mph - N/A   Clear
7:53 PM 64.9 °F 54.0 °F 68% 30.08 in 10.0 mi Variable 4.6 mph - N/A   Clear
8:53 PM 64.0 °F 54.0 °F 70% 30.08 in 10.0 mi South 4.6 mph - N/A   Clear
9:53 PM 64.0 °F 53.1 °F 67% 30.08 in 10.0 mi Variable 4.6 mph - N/A   Clear
10:53 PM 64.0 °F 51.1 °F 63% 30.09 in 10.0 mi SSW 8.1 mph - N/A   Partly Cloudy
11:53 PM 64.0 °F 50.0 °F 60% 30.09 in 10.0 mi SSW 3.5 mph - N/A   Overcast